Volver al catálogo

CHECKMATE 10

ActivoMilitarPO
NORAD 57762·PAYLOAD·🇺🇸 United States

Lanzado Sep 2, 2023 desde Vandenberg Space Force Base

Loading…

Próximos Pases (próximas 24 horas)

TLE

ActualizadoSource: Space-Track

Época: Sep 14, 2026, 12:39 UTC

1 57762U 23133F   26257.52718827  .00000051  00000-0  35039-4 0  9991
2 57762  80.9971 281.6331 0007409 124.0542 236.1318 13.85475207153404

Sigue CHECKMATE 10 en tiempo real con AllMySat

Download on the App Store